Location: Svitavy
(49.7500°N, 16.4667°E)
Time: 20:39:35
(UTC+01:00)

ISS - Visible Passes

Search period start: 26 January 2021 00:00
Search period end: 05 February 2021 00:00
Orbit: 418 x 421 km, 51.6° (Epoch: 27 January)

Date Brightness Start Highest point End Pass type
(mag) Time Alt. Az. Time Alt. Az. Time Alt. Az.
26 Jan -3.7 17:11:38 10° WSW 17:15:01 75° SSE 17:18:24 10° ENE visible
26 Jan -3.3 18:48:35 10° W 18:51:38 57° NNW 18:51:38 57° NNW visible
27 Jan -3.6 18:01:12 10° W 18:04:34 63° N 18:06:15 26° ENE visible
27 Jan -0.9 19:38:10 10° WNW 19:39:13 19° WNW 19:39:13 19° WNW visible
28 Jan -3.6 17:13:48 10° W 17:17:11 71° N 17:20:34 10° ENE visible
28 Jan -3.4 18:50:49 10° WNW 18:53:50 60° NNW 18:53:50 60° NNW visible
29 Jan -3.6 18:03:26 10° WNW 18:06:47 61° N 18:08:28 26° ENE visible
29 Jan -1.0 19:40:19 10° WNW 19:41:27 19° WNW 19:41:27 19° WNW visible
30 Jan -3.7 18:52:57 10° WNW 18:56:07 76° W 18:56:07 76° W visible
31 Jan -3.8 18:05:33 10° WNW 18:08:57 78° NNE 18:10:50 24° E visible
31 Jan -1.0 19:42:32 10° W 19:43:49 19° W 19:43:49 19° W visible
01 Feb -3.7 17:18:09 10° WNW 17:21:32 67° N 17:24:55 10° E visible
01 Feb -3.0 18:55:03 10° WNW 18:58:18 46° SSW 18:58:36 44° S visible
02 Feb -3.4 18:07:37 10° WNW 18:10:59 64° SSW 18:13:29 16° SE visible
02 Feb -0.8 19:45:15 10° W 19:46:29 14° WSW 19:46:29 14° WSW visible
03 Feb -1.5 18:57:23 10° W 19:00:05 22° SW 19:01:31 17° S visible
04 Feb -2.0 18:09:45 10° W 18:12:49 32° SSW 18:15:51 10° SSE visible
